Location: Vassar Physics Lab
(41.6843°N, 73.8954°W)
Time: 19:53:26
(UTC-04:00)

Daily predictions for brighter satellites

Satellite Brightness Start Highest point End
(mag) Time Altitude Azimuth Time Altitude Azimuth Time Altitude Azimuth
SL-19 R/B 4.4 18:56:28 10° SSE 19:02:02 63° ENE 19:07:56 10° N
Cosmos 1371 Rocket 4.4 18:59:07 10° NNW 19:04:25 72° WSW 19:09:43 10° S
Cosmos 2297 3.7 18:58:46 10° NNW 19:04:28 80° ENE 19:10:06 10° SSE
Cosmos 2233 Rocket 4.3 18:59:59 10° S 19:06:17 81° W 19:12:40 10° N
Cosmos 1805 4.5 19:03:27 10° SE 19:06:30 22° E 19:09:34 10° NE
Cosmos 1953 3.4 19:04:17 10° SE 19:07:27 23° E 19:10:37 10° NE
ALOS 3.8 19:06:07 10° ESE 19:09:09 17° ENE 19:12:12 10° NNE
ISS -1.1 19:08:29 10° SSE 19:09:34 11° SE 19:10:40 10° ESE
Meteor 1-22 Rocket 4.0 19:05:33 10° S 19:10:51 70° E 19:16:08 10° NNE
USA 215 3.8 19:06:42 10° ENE 19:12:43 38° SE 19:18:41 10° SSW
MSX 4.2 19:07:16 10° S 19:12:59 71° WSW 19:18:45 10° NNW
Cosmos 2369 Rocket 3.8 19:10:25 10° N 19:14:01 17° NE 19:17:38 10° E
SKYMED 2 3.7 19:09:40 10° N 19:14:03 82° WNW 19:18:22 10° SSW
HJ-1C 4.5 19:13:05 10° SE 19:15:55 26° ENE 19:18:47 10° NNE
Cosmos 1707 3.9 19:12:33 10° NNW 19:16:17 48° W 19:19:59 10° SSW
Cosmos 1408 Rocket 3.9 19:12:38 10° N 19:16:47 42° ENE 19:20:52 10° SSE
Meteor 1-24 Rocket 3.7 19:12:02 10° N 19:17:42 90° WSW 19:23:07 10° S
IDEFIX/ARIANE 42P 4.2 19:13:49 10° SSW 19:18:42 40° W 19:23:39 10° NNW
Cosmos 1603 4.3 19:15:47 10° SSE 19:20:55 35° ESE 19:26:05 10° NE
GPS 2-04 Rocket1 4.4 19:19:16 10° SSW 19:21:22 15° SSE 19:23:30 10° ESE
NOAA 12 4.1 19:21:14 10° SSE 19:26:27 71° ENE 19:31:44 10° N
Aureole 2 Rocket 3.6 19:25:25 10° SSW 19:29:45 62° WNW 19:34:00 10° NNE
Cosmos 1470 4.3 19:27:34 10° SE 19:29:59 16° E 19:32:25 10° NE
SL-8 R/B 4.4 19:26:08 10° SSW 19:30:28 36° SE 19:34:16 13° ENE
ATLAS CENTAUR R/B 3.6 19:27:51 10° SW 19:32:41 80° SE 19:48:21 10° NE
SeaSat 1 4.1 19:35:14 13° ESE 19:35:14 13° ESE 19:36:52 10° SE
Cosmos 724 4.4 19:29:05 10° SSW 19:34:49 55° ESE 19:40:44 10° NE
SAR-Lupe-1 4.3 19:32:31 10° S 19:36:03 74° WSW 19:39:37 10° NNW
Cosmos 2333 Rocket 4.4 19:31:15 10° WSW 19:36:06 27° NW 19:41:00 10° N
SJ-6B 3.0 19:33:33 10° S 19:37:32 80° WSW 19:41:38 10° NNW
In-Cosmos 22 4.2 19:32:58 10° N 19:38:46 72° E 19:44:28 10° SSE
Resurs 1-3 3.9 19:35:13 10° SE 19:39:22 44° ENE 19:43:33 10° N
Meteor 1-29 3.5 19:37:01 10° NNE 19:40:18 36° E 19:43:32 10° SSE
Helios 1A 3.1 19:36:41 10° SSE 19:40:46 51° ENE 19:44:53 10° N
FREGAT/IRIS 2.6 19:37:55 10° SSE 19:41:00 86° W 19:44:06 10° NNW
TELKOM 3 4.3 19:38:50 10° NW 19:41:27 30° NNE 19:42:22 22° ENE
Resurs 01 Rocket 1.6 19:38:08 10° SSE 19:42:31 62° ENE 19:46:56 10° N
CZ-4B DEB 3.9 19:41:22 20° ESE 19:42:35 25° ENE 19:45:20 10° NNE
Cosmos 1674 3.7 19:41:26 10° NNE 19:44:46 27° ENE 19:46:24 20° ESE
Cosmos 1743 Rocket 3.9 19:41:43 10° N 19:45:57 41° ENE 19:50:07 10° SSE
NOSS 3-2 (A) 3.9 19:40:43 10° SW 19:46:45 66° NW 19:53:24 10° NNE
FengYun 1-2 T 4.3 19:42:53 10° SSE 19:48:16 58° ENE 19:53:39 10° N
Cosmos 1758 3.2 19:46:17 10° S 19:50:20 78° E 19:54:28 10° N
Cosmos 1452 Rocket 3.5 19:45:45 10° NNW 19:51:03 87° WSW 19:56:18 10° SSE
ATLAS 5 CENTAUR R/B 2.1 19:51:37 10° SW 19:56:23 72° NW 20:01:35 10° NNE
Abrixas 2.7 19:54:08 10° SW 19:57:02 48° SE 19:57:41 39° ESE
Nadezhda 4 Rocket 4.0 19:53:43 10° N 19:59:59 65° E 20:06:07 10° SSE
Cosmos 1346 2.9 19:58:15 10° N 20:01:13 69° E 20:02:37 28° SSE
Meteor 2-12 Rocket 4.4 19:58:18 10° S 20:04:27 85° E 20:10:39 10° N
Meteor 1-21 Rocket 4.2 20:02:03 10° N 20:07:39 88° W 20:13:11 10° S
Cosmos 1092 Rocket 4.0 20:01:50 10° N 20:07:55 54° ENE 20:13:46 11° SSE
GP-B 3.8 20:04:16 10° NNE 20:08:16 31° E 20:08:19 31° E
Cosmos 468 4.5 20:03:16 10° SSW 20:08:32 89° W 20:13:48 10° NNE
ASTEX 1 3.4 20:06:38 10° NNE 20:11:29 58° E 20:16:17 10° S
Cosmos 1420 Rocket 3.9 20:06:53 10° NNW 20:12:13 81° ENE 20:16:34 16° SSE
SL-16 R/B 4.0 20:12:29 10° WSW 20:17:32 33° WNW 20:22:39 10° N
Helios 1B rocket 2.9 20:13:30 10° N 20:17:33 61° WNW 20:21:37 10° SSW
CENTAUR R/B 2.6 20:12:26 10° S 20:18:10 49° ESE 20:24:35 10° NE
Cosmos 1544 3.4 20:15:54 10° SSW 20:19:36 67° W 20:23:21 10° N
Cosmos 2026 Rocket 4.4 20:15:32 10° N 20:21:12 38° ENE 20:22:37 34° ESE
Cosmos 1634 Rocket 4.0 20:17:30 10° SSE 20:23:32 53° E 20:29:32 10° NNE
CZ-2D R/B 3.1 20:24:44 44° SSE 20:25:54 80° ENE 20:29:48 10° N
NOSS 3-2 (C) 4.5 20:20:01 10° WSW 20:25:55 47° NW 20:32:23 10° NNE
Spot 2 Rocket 4.5 20:22:45 10° S 20:27:36 47° W 20:32:27 10° NNW
OAO 3 Rocket 4.1 20:24:51 10° WSW 20:29:10 34° S 20:30:04 32° SSE
Cosmos 1048 Rocket 4.0 20:26:05 10° SSW 20:31:24 85° WNW 20:36:41 10° NNE
Cosmos 1269 Rocket 4.2 20:26:41 10° SSW 20:31:57 73° WNW 20:37:15 10° NNE
FENGYUN 3A 3.7 20:28:50 10° S 20:34:10 77° WSW 20:39:35 10° NNW
Envisat 3.9 20:39:20 32° NE 20:39:20 32° NE 20:43:03 10° N
H-2A R/B 3.0 20:39:09 49° SSW 20:40:04 69° W 20:43:57 10° NNW
Gbstr 26 Del rocket 3.2 20:38:22 10° SW 20:42:51 64° SE 20:42:57 64° SE
Cosmos 2195 Rocket 4.4 20:36:56 10° N 20:43:14 66° E 20:45:27 41° SSE
Cosmos 2151 3.3 20:39:22 10° N 20:42:41 50° NNE 20:42:41 50° NNE
Cosmos 1174 4.4 20:40:31 10° SSW 20:44:15 50° S 20:44:15 50° S
ISS -1.6 20:42:21 10° WSW 20:44:06 29° WSW 20:44:06 29° WSW
Cosmos 2058 4.5 20:42:08 10° N 20:44:01 24° NNE 20:44:01 24° NNE
ALOS 3.0 20:42:16 14° S 20:46:11 51° W 20:50:45 10° NNW
BREEZE-M DEB (TANK) 3.3 20:39:55 10° WNW 20:51:08 65° N 20:52:03 53° NE
Cosmos 1842 Rocket 4.4 20:50:34 10° SSW 20:54:45 48° W 20:58:59 10° N
Cosmos 1500 Rocket 4.5 20:50:40 10° NNW 20:54:56 48° W 20:57:01 27° SSW
USA 215 3.6 20:49:37 11° NE 20:55:55 65° NW 21:02:21 10° WSW
Cosmos 158 Rocket 3.7 20:51:39 10° SSW 20:56:32 83° WNW 21:01:27 10° NNE
Cosmos 2369 Rocket 2.1 20:53:05 10° NNW 20:58:47 83° WSW 20:59:45 62° S
Cosmos 1943 Rocket 2.7 20:53:28 10° NNW 20:58:07 42° NE 20:58:07 42° NE
Cosmos 1943 3.1 20:53:53 10° SSW 20:59:31 83° WNW 21:05:11 10° NNE
Cosmos 1470 4.4 21:02:17 10° SW 21:05:49 33° WNW 21:09:21 10° NNW
Cosmos 2263 4.1 21:00:05 10° NNW 21:05:54 82° ENE 21:05:59 81° E
Cosmos 1627 Rocket 4.5 21:03:12 10° N 21:09:24 80° W 21:11:13 49° S
SeaSat 1 3.9 21:07:31 10° NNE 21:15:13 27° SW 21:17:24 10° SSW
SL-8 R/B 4.2 21:08:08 10° WSW 21:12:17 56° WNW 21:12:17 56° WNW
ERS-1 Rocket 3.4 21:15:21 54° N 21:15:21 54° N 21:19:14 10° NNW
Cosmos 1110 Rocket 4.4 21:17:54 10° NNW 21:22:20 62° NW 21:22:20 62° NW
Cosmos 2279 Rocket 4.4 21:46:27 59° WNW 21:46:27 59° WNW 21:52:21 10° N
CENTAUR R/B 3.9 22:03:19 10° WSW 22:09:01 36° NW 22:15:25 10° NNE
